Temp
14 14 14 13 13 12 12 12 12 12 11 11 11 10 10 10 10 10 10 10 9 9 9 9 9 10 10 9 9 9 9 9 8 8 8 8 7 7 7 7 7 6 6 6 6 5 5 5 4 4 3 3 3 3 3 2 2 2 2 2 2 2 1 1 1 1 1 1 1
15 15 14 13 13 13 13 12 12 12 12 11 11 11 11 10 10 10 10 10 10 10 10 10 10 10 10 10 10 9 9 9 9 8 8 8 8 8 7 7 7 7 6 6 6 5 5 5 4 4 3 3 3 3 3 2 2 2 2 2 2 2 1 1 1 1 1 1 1
15 15 14 14 14 14 13 13 13 13 12 12 11 11 11 11 10 10 10 10 10 10 10 10 10 10 10 10 10 10 9 9 9 8 8 8 8 8 8 7 7 7 6 6 6 5 5 5 4 4 3 3 3 3 3 2 2 2 2 2 2 1 1 1 1 1 1 1 1
15 15 15 15 14 14 14 13 13 12 12 12 11 11 11 11 10 10 10 10 10 10 10 10 10 10 10 10 10 10 10 9 9 9 8 8 8 8 8 8 7 7 7 6 6 5 5 5 4 4 3 3 3 3 3 3 2 2 2 2 1 1 1 1 1 1 1 1 1
15 15 15 14 14 14 13 13 12 12 12 12 11 11 11 11 11 11 10 10 10 11 11 11 11 10 11 11 10 10 10 10 10 9 9 9 9 9 8 8 8 7 7 6 6 6 5 5 4 3 3 3 3 3 3 3 2 2 2 2 1 1 1 1 1 1 1 1 1
14 14 14 14 14 13 13 12 12 12 11 11 11 11 11 11 11 11 10 10 11 11 11 11 11 11 11 11 11 11 10 10 10 10 9 9 9 9 9 8 8 8 7 7 6 6 5 4 4 3 3 3 3 3 3 3 2 2 2 2 1 1 1 1 1 1 1 1 1
14 14 14 14 13 13 12 12 11 11 11 11 11 11 11 11 11 11 11 11 11 11 11 11 11 11 11 11 11 10 10 10 10 10 9 9 9 9 9 8 8 8 7 7 6 6 5 4 4 3 3 3 3 3 3 2 2 2 2 2 1 1 1 1 1 1 1 1 1
14 14 14 14 13 13 12 11 11 11 11 11 11 11 11 11 11 11 11 11 11 11 11 11 11 11 11 11 10 10 10 10 10 10 9 9 9 9 9 8 8 8 7 7 6 6 5 4 3 3 3 3 3 3 3 2 2 2 2 2 1 1 1 1 1 1 1 1 1
14 14 14 13 13 12 12 11 11 11 11 11 11 11 11 12 12 12 11 11 11 11 11 11 11 11 10 10 10 10 10 10 10 10 9 9 9 9 8 8 8 8 7 7 6 6 5 4 3 3 3 3 3 3 3 2 2 2 2 2 1 1 1 1 1 1 1 1 0
13 13 13 13 13 12 12 12 11 11 11 11 12 12 12 11 11 11 11 11 11 11 11 11 10 10 10 10 10 10 10 9 9 9 9 9 9 8 8 8 8 8 7 7 6 6 5 4 4 3 3 3 3 3 3 2 2 2 2 2 1 1 1 1 1 1 1 0 0
13 13 13 13 13 13 12 12 12 12 11 11 11 11 11 11 11 11 11 11 10 10 10 10 10 10 10 10 10 9 9 9 9 9 9 8 8 8 8 8 8 7 7 7 6 6 5 4 4 3 3 3 3 3 3 2 2 2 2 1 1 1 1 1 1 1 1 0 0
13 13 13 13 13 12 12 12 12 12 12 11 11 11 11 11 11 11 10 10 10 10 10 10 10 10 10 10 10 10 10 9 9 9 8 8 8 8 8 7 7 7 7 7 6 6 5 4 4 4 4 3 3 3 2 2 2 2 2 1 1 1 1 1 1 1 0 0 0
12 13 13 13 13 12 12 12 12 12 12 12 11 11 11 11 11 11 10 10 11 11 11 11 11 10 10 10 10 10 10 9 9 8 8 8 8 7 7 7 7 7 7 7 6 5 5 4 4 4 4 3 3 3 2 2 2 2 1 1 1 1 1 1 1 1 0 0 -0
12 12 12 12 12 12 12 12 12 12 12 12 11 11 11 11 11 11 11 11 11 11 11 11 11 10 10 10 9 9 9 9 8 8 8 7 7 7 7 7 7 7 7 6 6 5 5 5 4 4 4 3 3 3 3 2 2 2 1 1 1 1 1 1 1 0 0 0 -0
11 11 11 11 12 12 12 12 12 12 12 12 12 12 11 11 11 11 11 11 11 11 11 10 10 10 9 9 9 8 8 8 8 7 7 7 7 7 7 7 7 7 6 6 6 5 5 5 4 4 4 3 3 3 3 2 2 2 1 1 1 1 1 1 0 0 0 -0 -0
10 10 10 10 11 11 11 11 12 12 12 12 12 12 12 12 11 11 11 11 11 10 10 10 9 9 9 8 8 8 7 7 7 7 6 6 7 7 7 7 7 6 6 6 6 5 5 5 4 4 4 3 3 3 3 2 2 2 1 1 1 1 1 1 0 0 0 -0 -0
10 10 10 10 10 10 10 10 10 10 11 11 11 11 11 11 11 11 11 10 10 9 9 9 8 8 8 8 7 7 7 6 6 6 6 6 6 6 6 6 6 6 6 6 5 5 5 5 4 4 3 3 3 3 2 2 2 2 1 1 1 1 1 1 0 0 0 -0 -0
10 10 10 10 10 9 9 9 9 9 10 10 10 10 10 10 10 10 10 10 9 9 8 8 8 8 7 7 7 7 6 6 6 6 6 6 6 6 6 6 6 6 6 6 5 5 5 5 4 4 3 3 3 2 2 2 2 1 1 1 1 1 1 1 0 0 0 -0 -0
10 10 10 10 10 9 9 9 9 9 9 9 9 9 9 9 9 9 9 9 9 8 8 7 7 7 7 7 6 6 6 6 5 5 5 5 5 5 6 6 6 6 6 5 5 5 5 4 4 4 3 3 2 2 2 2 1 1 1 1 1 1 0 0 0 0 -0 -0 -0
10 10 10 9 9 9 9 9 9 9 9 9 9 9 9 9 9 8 8 8 8 7 7 6 6 6 6 6 6 6 6 5 5 5 5 5 5 5 5 5 5 5 5 5 5 5 5 4 4 3 3 3 2 2 2 2 1 1 1 1 1 0 0 0 0 -0 -0 -0 -0
9 9 9 9 9 9 9 9 9 9 9 9 9 8 8 8 8 8 7 7 7 7 6 6 6 6 6 6 6 6 6 5 5 5 5 5 5 5 5 5 5 5 5 5 5 5 4 4 4 3 3 3 2 2 2 1 1 1 1 0 0 0 0 -0 -0 -0 -0 -1 -1
9 9 9 8 8 8 8 8 8 8 8 8 8 8 7 7 7 7 7 7 6 6 6 6 6 5 5 5 5 5 5 5 5 4 4 4 4 4 5 4 4 4 4 4 4 4 4 4 3 3 3 2 2 2 1 1 1 1 0 0 0 -0 -0 -0 -0 -1 -1 -1 -1
8 8 8 8 8 8 8 8 8 8 8 7 7 7 7 6 6 6 6 6 6 6 6 5 5 5 5 5 5 5 5 5 4 4 4 4 4 4 4 4 4 4 4 4 4 4 4 3 3 3 2 2 2 1 1 1 1 0 0 -0 -0 -0 -0 -1 -1 -1 -1 -1 -1
8 8 8 8 8 8 8 8 8 7 7 7 6 6 6 6 6 6 6 6 5 5 5 5 5 5 5 5 5 4 4 4 4 4 4 4 4 4 4 4 4 4 4 4 4 4 3 3 3 2 2 2 1 1 1 1 1 0 0 -0 -0 -0 -1 -1 -1 -1 -1 -1 -1
8 8 8 8 8 8 8 7 7 7 6 6 6 6 5 5 5 5 5 5 5 5 5 5 5 5 5 5 4 4 4 4 4 4 4 4 4 4 4 4 4 4 4 4 4 3 3 2 2 2 2 1 1 1 1 1 1 0 0 -0 -0 -1 -1 -1 -1 -1 -1 -1 -1
7 7 7 7 7 7 7 7 6 6 6 6 6 5 5 5 5 5 5 5 5 5 5 5 5 5 4 4 4 4 4 4 4 4 4 4 4 4 4 4 3 3 3 3 3 3 3 2 2 2 2 2 2 1 1 1 1 1 0 0 -0 -1 -1 -1 -1 -1 -1 -1 -1
7 7 7 6 6 6 6 6 6 5 5 5 5 5 5 5 5 5 5 5 5 5 5 5 4 4 4 4 4 4 4 4 4 4 4 4 4 4 4 3 3 3 3 3 3 3 3 3 3 3 3 3 3 2 2 2 1 1 1 0 -0 -1 -1 -1 -1 -1 -1 -1 -1
6 6 6 6 5 5 5 5 5 5 5 5 5 5 5 5 4 4 4 4 4 4 4 4 4 4 4 4 4 4 4 4 4 4 3 3 3 3 3 3 3 3 3 3 3 3 3 3 3 3 3 3 3 3 3 2 2 1 1 0 -0 -1 -1 -1 -1 -1 -1 -1 -1
6 5 5 5 5 5 4 4 4 4 4 4 4 4 4 4 4 4 4 4 4 4 4 4 4 4 4 3 4 4 4 3 3 3 3 3 3 3 3 3 3 3 3 3 3 3 3 3 3 3 4 4 4 3 3 3 2 2 1 1 -0 -1 -1 -1 -1 -1 -1 -1 -1
5 5 4 4 4 4 4 4 4 4 4 4 4 4 4 4 4 4 4 4 4 4 4 3 3 3 3 3 3 3 3 3 3 3 3 3 3 3 3 3 3 3 3 3 3 3 3 3 3 3 4 4 4 4 3 3 3 3 2 2 1 0 -0 -1 -1 -1 -1 -1 -1
5 4 4 4 4 4 4 4 4 4 4 4 4 4 4 4 3 3 3 3 3 3 3 3 3 3 3 3 3 3 3 3 3 3 3 3 3 3 3 3 3 3 3 3 3 3 3 3 3 3 4 4 4 4 3 3 3 3 2 2 2 1 0 -0 -1 -1 -1 -1 -1
4 4 4 4 4 3 3 3 3 3 3 3 3 3 3 3 3 3 3 3 3 3 3 3 3 3 3 3 3 3 3 3 3 3 3 3 3 3 3 3 3 3 3 3 3 3 3 3 3 3 4 4 4 4 3 3 3 3 3 2 2 2 1 0 -0 -1 -1 -1 -1
4 4 4 3 3 3 3 3 3 3 3 3 3 3 3 3 3 3 3 3 3 3 3 3 3 3 3 3 3 3 3 3 3 3 3 3 3 3 3 3 3 3 3 3 3 3 3 3 3 4 4 4 4 3 3 3 3 3 3 2 2 2 2 1 0 -0 -1 -1 -1
4 4 3 3 3 3 3 3 3 3 3 3 3 3 3 3 3 3 3 3 3 3 3 2 2 2 2 2 2 2 2 2 2 2 3 3 3 3 2 2 2 2 3 3 3 3 3 3 3 3 4 4 3 3 3 3 3 3 2 2 2 2 2 2 1 0 -0 -1 -1
4 3 3 3 3 3 3 3 3 3 3 3 3 3 3 3 3 3 2 2 2 2 2 2 2 2 2 2 2 2 2 2 2 2 2 2 2 2 2 2 2 3 3 3 3 3 3 3 3 3 3 3 3 3 3 3 2 2 2 2 2 2 2 2 1 1 0 -0 -1
3 3 3 3 3 3 3 3 3 3 3 3 2 2 2 2 2 2 2 2 2 2 2 2 2 2 2 2 2 2 2 2 2 2 2 2 2 2 2 2 2 3 3 3 3 3 3 3 3 3 3 3 3 3 3 2 2 2 2 2 2 2 2 2 1 1 1 0 -0
3 3 3 3 3 3 3 2 2 2 2 2 2 2 2 2 2 2 2 2 2 2 2 2 2 2 2 2 2 2 2 2 2 2 2 2 2 2 2 2 2 3 3 3 3 3 3 3 3 3 3 3 3 3 2 2 2 2 2 2 2 2 2 2 1 1 1 0 -0
3 3 3 2 2 2 2 2 2 2 2 2 2 2 2 2 2 2 2 2 2 2 2 2 2 2 2 2 2 2 2 2 2 2 2 2 2 2 2 2 2 3 3 3 3 3 3 3 3 3 3 3 3 2 2 2 2 2 2 2 2 2 1 1 1 1 1 1 0
2 2 2 2 2 2 2 2 2 2 2 2 2 1 1 1 1 1 1 1 1 1 1 1 1 1 2 2 2 2 2 2 2 2 3 3 3 2 2 2 2 3 3 3 3 3 3 3 3 3 3 3 2 2 2 2 2 2 2 1 1 1 1 1 1 1 1 0 0
2 2 2 2 2 2 2 2 1 1 1 1 1 1 1 1 1 1 1 1 1 1 1 1 1 1 1 2 2 2 2 2 2 3 3 3 3 2 2 2 3 3 3 3 3 3 3 3 3 3 3 2 2 2 2 2 2 1 1 1 1 1 1 1 1 1 0 0 0
2 2 2 2 1 1 1 1 1 1 1 1 1 1 1 1 1 1 1 1 1 1 1 1 1 1 1 2 2 2 2 2 2 2 3 3 2 2 2 2 2 2 2 2 2 2 3 3 3 3 2 2 2 2 2 1 1 1 1 1 1 1 1 1 0 0 0 0 -0
Height
796 795 794 794 793 792 792 791 790 789 789 788 787 786 786 786 785 784 784 783 783 782 781 781 780 780 779 779 779 778 778 778 777 777 776 776 775 775 774 774 774 773 773 773 773 773 773 773 773 773 772 772 772 771 771 771 771 771 771 770 770 770 770 771 770 770 771 771 771
794 794 793 792 792 791 790 789 788 787 786 785 785 784 784 784 783 782 782 781 780 780 779 779 778 778 777 777 777 776 776 775 775 775 774 774 773 772 772 772 771 771 770 770 770 770 770 770 770 770 770 769 769 768 768 767 768 768 767 767 766 767 767 767 766 766 767 768 768
793 792 792 791 790 789 788 787 786 785 784 784 783 783 782 782 781 780 780 779 778 778 778 777 776 776 775 775 775 774 774 773 773 772 772 771 770 770 769 769 769 768 768 767 767 767 767 767 767 767 767 766 766 765 764 764 764 765 764 763 763 764 764 763 763 763 764 765 765
792 792 791 790 789 788 787 785 784 783 782 782 782 781 781 780 779 778 778 777 777 776 776 775 775 774 774 773 773 772 772 771 771 770 770 769 768 767 767 767 766 765 765 765 764 764 764 764 765 765 764 763 762 762 761 761 761 761 760 760 760 761 760 760 760 760 761 761 761
791 791 790 789 788 787 785 784 783 782 781 781 780 779 779 778 777 777 776 776 775 775 774 774 773 773 772 772 771 770 770 769 769 768 767 767 766 765 765 764 764 763 762 762 761 761 761 761 762 761 761 760 759 758 757 757 758 758 757 757 757 757 757 756 756 757 757 757 757
790 790 789 787 786 785 784 782 782 781 780 779 778 778 777 776 776 775 775 774 773 773 773 772 772 771 770 770 769 769 768 767 767 766 765 764 764 763 762 762 761 760 760 759 759 758 758 759 759 758 757 757 756 755 754 755 755 755 754 754 753 753 753 753 753 753 754 754 754
789 788 787 786 785 784 782 781 780 780 779 778 777 776 775 775 775 774 773 773 772 772 771 771 770 769 769 768 767 767 766 765 765 764 763 762 761 761 760 759 759 758 757 757 756 756 756 756 756 755 754 754 753 752 751 752 752 752 751 750 750 750 750 749 749 750 750 750 750
788 787 786 785 784 782 781 780 779 778 777 777 776 775 774 774 773 772 772 771 771 770 770 769 768 768 767 767 766 765 764 763 762 762 761 760 759 758 758 757 756 755 755 754 754 753 753 753 753 752 751 750 750 748 748 748 748 748 747 747 746 746 746 746 746 746 747 746 746
786 785 785 783 782 781 780 779 778 777 776 775 775 774 773 772 772 771 770 770 769 769 768 767 767 766 766 765 764 763 762 761 760 759 759 758 757 756 755 755 754 753 752 752 751 751 751 751 750 749 748 747 746 745 744 745 745 744 744 743 743 743 743 743 743 743 743 743 743
785 784 783 782 781 780 779 778 777 776 775 774 773 773 772 771 771 770 769 769 768 767 767 766 765 765 764 763 762 761 760 759 758 757 756 755 755 754 753 752 751 750 750 749 749 749 748 748 747 746 744 743 742 742 741 742 742 741 740 740 740 739 739 739 740 740 739 739 739
783 782 782 781 780 779 778 777 776 775 774 773 772 772 771 770 770 769 768 767 767 766 765 765 764 763 762 761 760 759 758 757 756 755 754 753 752 751 750 749 749 748 747 746 746 746 746 745 744 742 741 740 740 739 738 738 738 738 737 736 736 736 736 736 736 736 736 736 736
782 781 780 779 778 777 776 775 775 774 773 772 771 771 770 769 769 768 767 766 765 764 763 763 762 761 760 759 758 757 755 754 753 752 751 750 749 748 747 746 746 745 744 743 743 743 743 742 740 739 738 737 737 736 735 735 735 734 733 733 733 733 732 732 732 733 733 733 733
781 780 779 778 777 776 775 774 773 772 772 771 770 769 769 768 767 767 765 764 763 762 761 760 759 758 757 756 755 754 753 752 750 749 748 747 746 745 744 743 743 742 741 740 740 740 739 738 737 736 735 733 733 732 732 731 731 731 730 729 729 729 729 728 729 730 730 730 730
780 779 778 777 776 775 774 773 772 771 770 770 769 768 767 766 766 765 764 762 761 759 758 757 756 755 754 753 752 750 750 748 747 746 745 744 743 742 741 740 740 739 738 737 737 736 736 735 733 732 731 730 729 729 728 728 728 727 726 726 726 725 725 725 725 726 727 727 726
778 777 777 776 775 774 772 772 771 770 769 768 767 766 765 765 764 763 761 760 758 757 756 754 753 752 751 750 749 748 746 745 744 743 742 741 740 739 738 737 736 736 735 734 733 733 732 731 730 729 728 727 726 725 725 725 724 723 723 722 722 721 721 721 722 723 723 723 722
776 775 775 774 773 772 771 770 769 768 767 766 765 765 764 762 761 760 759 757 756 755 753 752 751 750 748 747 747 745 744 742 741 740 739 738 737 736 735 734 733 733 732 731 730 729 728 727 727 726 725 723 722 721 721 721 720 720 719 718 718 718 718 718 718 719 719 719 719
774 773 773 772 771 770 769 768 767 766 765 764 763 763 762 760 759 758 757 755 754 752 751 750 749 747 746 745 744 743 742 740 738 737 736 735 734 733 732 731 730 730 729 728 727 726 725 724 723 722 721 720 719 718 717 717 716 716 715 715 714 714 714 714 715 715 715 715 715
773 772 771 770 769 768 767 766 765 764 763 762 761 760 759 758 757 756 754 753 752 750 749 747 746 745 744 742 740 740 739 737 735 734 733 732 731 730 729 728 727 726 726 725 724 722 721 720 720 719 718 717 716 715 714 713 712 712 711 711 710 710 710 710 711 711 711 711 711
772 771 770 769 767 766 765 764 763 762 761 760 759 758 757 756 755 753 752 751 750 748 747 745 743 742 741 739 737 736 735 734 733 731 730 729 728 727 726 725 724 723 722 721 720 719 718 717 716 716 715 714 712 711 710 710 709 708 707 707 707 707 707 707 707 707 708 708 707
771 770 768 767 766 765 764 763 762 760 759 758 757 756 754 753 752 751 749 748 747 746 745 742 741 739 737 736 735 733 732 731 730 728 727 726 725 724 722 721 720 720 719 718 717 716 715 714 713 712 711 710 709 708 707 706 705 704 704 703 703 703 703 703 703 704 704 704 704
769 768 767 766 765 764 762 761 760 758 757 756 754 753 752 750 749 748 747 745 744 743 741 740 738 736 735 733 732 730 729 728 727 725 723 722 721 720 719 718 717 716 715 715 714 712 711 710 710 709 708 707 706 704 703 703 702 701 700 700 700 699 699 700 700 700 700 700 701
768 767 766 765 763 762 761 759 758 756 755 753 752 751 749 748 747 745 744 743 741 740 738 737 735 734 732 730 729 727 726 725 723 722 721 719 718 717 716 715 714 713 712 711 710 709 708 707 706 705 704 703 702 701 700 699 699 698 697 697 696 696 696 696 696 696 697 697 697
767 766 764 763 761 760 759 757 756 754 752 751 750 748 747 745 744 743 741 740 739 737 735 734 732 731 730 728 726 725 723 721 720 719 718 717 715 714 713 712 712 710 709 708 707 706 705 704 703 702 701 700 699 697 697 696 695 695 694 693 693 692 692 692 692 693 693 693 694
765 764 763 761 760 758 757 755 753 752 750 749 747 746 745 743 742 740 739 737 736 734 733 731 730 728 727 725 724 722 721 719 717 715 714 714 713 711 710 709 708 707 706 705 704 703 702 701 700 698 697 696 695 694 693 692 692 691 690 690 689 689 689 688 689 689 689 690 690
764 762 761 760 758 756 755 753 751 750 748 747 745 744 742 741 739 738 736 734 733 731 730 728 727 725 724 722 721 719 718 716 715 713 711 710 709 709 707 706 705 704 703 702 701 700 700 699 697 696 695 693 692 691 690 689 688 687 687 686 686 685 685 685 685 685 686 686 686
762 761 759 758 756 754 753 751 750 748 746 745 743 742 740 739 737 736 734 732 730 729 728 726 724 723 722 720 718 717 715 714 712 711 709 708 706 705 705 704 702 701 700 699 698 697 697 696 695 694 693 691 689 688 686 685 684 683 683 682 682 682 682 681 681 682 682 682 682
760 759 757 756 754 752 751 749 748 746 745 743 741 740 738 737 735 734 732 730 728 727 725 724 722 721 719 717 716 714 712 711 710 708 707 706 704 702 701 700 699 698 697 696 695 695 694 693 693 692 691 689 687 685 683 682 680 679 679 678 678 678 678 678 678 678 678 679 679
758 757 755 754 752 750 749 747 746 744 742 741 739 738 736 735 733 731 730 728 726 725 723 721 720 718 717 715 713 711 710 708 707 706 704 703 702 700 698 697 696 695 694 693 693 692 691 690 690 689 688 687 685 683 681 679 677 676 675 674 674 674 674 674 674 674 675 675 675
757 755 754 752 750 748 747 745 744 742 741 739 737 735 734 732 730 729 727 725 724 722 721 719 717 716 714 712 711 709 707 706 705 703 702 700 699 697 696 694 693 692 691 691 690 690 689 688 687 685 685 683 682 680 678 677 675 673 672 671 670 670 669 670 670 670 671 671 672
755 754 752 750 748 747 745 743 742 740 739 737 735 733 732 730 728 726 725 723 722 720 719 717 715 714 712 710 708 707 705 703 702 701 699 698 696 694 693 692 690 689 688 688 687 687 686 685 684 682 681 680 679 677 675 674 672 671 669 668 667 666 666 665 666 666 667 667 668
753 752 750 748 747 745 743 741 740 738 736 735 733 731 729 727 726 724 723 721 720 718 716 715 713 711 709 707 706 704 702 701 699 698 697 695 693 692 690 689 687 686 686 685 685 684 683 682 680 679 678 677 676 674 672 670 669 668 666 665 664 663 662 662 662 662 663 664 665
752 750 748 747 745 743 741 739 738 736 734 732 731 729 727 725 724 722 721 719 718 716 714 712 711 709 706 705 703 702 700 698 697 695 694 693 691 689 687 686 685 684 683 683 682 681 680 679 677 676 675 674 672 670 669 667 666 664 663 662 661 660 660 659 659 659 659 660 660
750 748 747 745 743 741 739 737 736 734 732 730 729 727 725 724 722 720 719 717 716 714 712 710 708 706 704 703 701 699 697 696 695 693 692 690 689 687 685 684 682 681 681 680 680 679 677 676 675 673 672 670 669 667 666 664 663 661 660 659 658 658 657 656 656 655 655 656 656
748 746 745 743 741 739 737 735 734 732 731 729 727 725 724 722 720 718 717 715 714 712 710 708 706 705 703 701 699 697 695 693 692 691 689 688 686 685 683 681 680 679 678 678 677 676 675 673 672 670 669 667 666 664 662 661 660 658 657 656 655 655 655 654 653 652 652 652 653
746 745 743 741 739 738 736 734 732 731 729 727 725 723 722 720 719 717 715 713 711 710 707 705 704 702 700 698 697 695 693 691 690 688 687 685 684 682 680 678 677 676 676 675 675 673 672 670 669 667 666 665 663 661 660 658 657 655 654 653 653 652 652 651 651 650 649 649 649
745 744 742 740 738 736 734 732 731 729 727 725 723 721 719 718 716 715 713 711 709 707 705 702 701 699 698 696 694 693 691 689 687 685 684 682 681 679 677 676 674 673 673 673 672 671 669 668 666 665 663 662 660 658 657 655 654 652 651 650 649 649 648 648 648 647 647 646 646
744 743 741 739 737 735 733 731 729 727 725 723 721 720 718 716 714 712 710 709 707 704 702 700 698 697 695 694 692 690 688 687 685 683 681 680 679 677 675 673 672 671 670 670 669 668 667 665 664 662 661 659 657 656 654 653 651 650 648 647 646 646 645 645 645 644 644 643 643
743 741 740 737 735 733 731 730 728 726 723 721 719 718 716 714 712 710 708 707 705 702 700 698 696 695 693 691 690 687 685 684 683 681 679 677 676 675 673 671 669 668 668 667 667 665 664 663 661 660 659 657 655 654 652 650 649 647 646 645 644 643 642 642 642 642 641 641 641
741 740 738 736 734 732 730 728 726 724 722 720 717 715 714 712 710 708 706 705 703 701 698 696 694 692 691 689 687 685 683 681 680 679 677 675 674 672 671 669 667 666 665 665 664 663 662 660 659 658 656 655 653 651 650 648 647 645 644 643 642 641 640 640 639 639 638 638 638
740 738 737 735 733 730 728 726 724 722 720 718 716 714 712 710 708 706 704 703 701 699 697 694 692 690 688 687 685 683 680 679 678 677 675 674 672 670 669 667 665 664 663 662 662 661 659 658 657 655 654 652 651 650 648 646 645 643 642 641 640 639 638 637 637 636 636 635 636
738 736 735 733 731 729 727 724 722 720 718 717 714 712 710 708 706 704 702 700 699 697 695 692 690 688 686 685 683 681 678 676 675 674 673 672 670 668 667 665 664 662 660 660 659 658 657 655 654 653 652 650 649 647 646 645 643 641 640 639 638 637 636 635 634 634 634 634 634
Wind_Speed
23 24 25 26 27 28 29 30 31 32 32 32 33 33 32 32 32 32 32 31 31 31 32 32 32 32 32 31 31 31 31 31 32 32 32 32 33 33 34 35 35 36 37 37 38 38 37 37 37 36 35 35 35 35 36 36 36 35 35 36 36 36 36 36 37 37 38 37 37
20 21 21 22 23 25 27 28 29 30 31 31 32 32 31 31 31 31 31 31 31 31 31 31 31 31 31 31 30 31 31 31 32 32 32 32 33 34 34 35 35 36 37 37 37 37 37 37 36 35 35 35 34 35 35 36 36 36 36 37 37 36 35 35 36 37 38 38 37
19 19 19 19 21 23 25 27 28 29 29 29 28 28 28 29 29 29 29 29 29 29 29 30 29 29 29 29 29 29 30 30 31 31 32 32 33 33 34 34 35 35 36 37 37 37 37 36 35 34 34 34 35 35 36 36 36 36 36 38 37 36 34 34 35 36 35 35 36
19 19 19 20 22 24 25 25 26 26 25 24 23 23 24 25 25 26 26 26 27 27 27 27 27 26 26 27 27 27 28 29 30 31 31 32 32 33 33 34 34 35 36 36 37 37 37 37 35 34 33 34 35 36 36 36 36 35 36 37 36 35 34 34 34 34 33 33 34
21 21 22 23 24 25 25 24 23 22 21 20 19 20 20 21 22 22 23 23 24 24 24 24 24 24 24 25 25 26 26 27 28 30 31 32 32 32 32 33 34 35 35 36 36 37 37 36 35 34 34 35 35 36 38 38 36 35 35 35 35 34 34 34 34 33 32 32 32
23 23 24 25 25 25 24 23 21 20 19 18 18 18 19 19 19 19 20 21 21 21 21 21 22 23 23 24 24 25 26 26 27 29 30 31 31 32 32 33 34 34 35 35 36 36 36 35 34 34 35 35 36 37 38 37 36 35 35 34 34 34 34 34 34 33 32 32 33
24 24 25 25 25 25 24 22 20 19 18 18 18 18 18 18 18 18 18 18 19 19 20 20 21 22 23 23 24 25 25 26 27 27 29 30 31 31 32 33 34 34 35 36 36 36 35 35 34 34 34 33 34 36 37 37 36 36 35 35 34 34 34 34 34 33 33 33 34
25 26 26 26 25 24 23 21 20 19 18 18 18 18 17 17 17 17 17 18 18 19 19 20 21 22 22 23 24 25 25 26 26 27 28 29 30 30 31 32 33 34 35 36 36 36 35 34 33 33 34 34 34 35 36 36 37 37 37 37 36 35 35 35 35 34 34 34 35
27 27 26 26 25 24 22 21 20 19 19 18 18 17 17 17 17 17 18 18 19 19 20 21 21 22 23 24 24 25 26 26 27 27 27 28 29 29 30 31 32 33 34 35 35 35 35 33 32 33 34 34 34 35 36 36 36 37 38 38 37 37 36 35 35 35 35 35 36
28 27 27 26 25 24 22 21 20 19 19 18 18 17 17 17 17 18 18 19 20 20 21 22 23 23 24 25 25 26 26 27 27 27 27 27 28 28 29 30 31 32 33 34 34 34 34 33 33 34 35 36 36 37 37 36 36 37 38 38 37 37 37 36 36 36 36 36 37
29 28 27 26 25 24 23 22 21 20 20 19 19 18 18 18 19 19 20 21 22 23 23 24 25 26 26 27 28 28 28 28 28 28 28 28 28 28 28 29 30 31 32 33 33 33 33 32 33 35 36 37 37 37 37 37 37 38 38 38 38 38 38 38 37 37 36 36 37
30 29 28 27 26 25 24 23 22 21 21 21 21 21 21 21 21 22 22 23 24 25 26 26 27 28 29 30 30 31 31 31 30 30 29 29 29 29 29 29 30 31 32 33 33 33 33 33 34 36 37 38 37 37 37 37 37 38 38 39 38 38 38 38 38 38 37 37 37
31 31 30 29 28 26 25 24 24 23 23 23 23 23 23 23 23 24 25 26 27 28 28 29 29 30 31 32 33 34 34 34 33 32 31 31 30 30 30 30 30 31 32 32 33 33 34 35 36 37 38 39 38 37 37 37 37 37 38 39 39 38 38 39 39 39 38 38 37
30 31 31 31 30 29 28 27 26 25 25 25 25 25 26 26 26 27 28 30 31 31 32 33 34 35 35 36 36 36 36 36 35 35 34 33 32 32 31 31 31 31 32 32 33 33 34 35 37 37 38 39 40 39 39 38 37 38 38 38 39 39 39 40 40 39 39 38 38
28 30 31 32 32 32 31 30 29 28 28 28 28 28 28 29 30 31 32 33 35 35 36 37 37 38 38 38 38 38 38 38 37 36 36 35 34 34 33 33 32 32 32 33 33 34 34 36 37 38 38 39 40 40 39 39 38 38 38 38 39 39 40 40 40 39 39 39 39
28 29 30 32 33 34 35 35 34 33 32 32 31 31 32 32 33 34 35 36 37 38 38 38 38 39 39 39 39 39 38 38 37 37 36 36 36 35 35 34 33 33 33 33 34 34 35 36 36 37 38 39 40 40 40 39 39 39 39 40 40 40 40 40 40 40 40 40 39
28 29 29 31 32 34 35 36 36 36 36 36 35 35 35 35 36 37 37 37 38 38 38 39 39 39 40 40 40 39 38 38 37 37 36 37 37 36 36 35 35 34 34 34 34 35 36 36 37 37 38 39 40 40 40 40 40 40 40 41 41 41 41 41 40 40 40 40 40
29 29 29 30 31 32 33 34 36 37 37 38 38 37 37 37 38 38 39 39 39 38 39 39 40 40 40 41 41 40 38 37 37 37 37 37 37 37 37 36 36 35 35 34 35 35 36 37 37 37 38 38 39 39 40 40 40 40 40 41 41 41 42 42 41 41 41 40 41
29 29 30 30 31 32 33 34 35 36 37 37 38 38 39 39 39 39 40 40 40 39 39 40 40 41 41 41 41 41 39 38 38 38 37 37 37 37 37 37 37 36 36 35 36 36 37 37 37 37 38 38 38 39 39 39 39 40 40 40 40 41 41 41 41 41 41 41 41
30 30 30 31 31 32 33 34 34 35 36 37 38 38 39 40 40 40 40 40 41 40 39 39 40 41 41 41 41 40 40 38 37 37 37 37 37 37 37 37 37 37 36 36 36 37 37 38 38 38 38 38 38 39 39 39 39 39 40 40 40 40 40 40 41 41 41 41 41
31 31 32 32 33 33 34 34 34 35 36 37 37 38 39 40 40 40 40 40 40 40 39 39 39 40 40 40 40 40 39 38 37 37 37 37 37 38 38 37 37 37 37 37 37 37 38 38 38 38 38 38 38 39 39 39 38 39 39 39 39 39 39 39 40 40 40 40 40
32 33 33 34 34 34 35 35 35 35 36 36 37 38 38 38 39 39 39 39 38 38 38 38 38 38 38 38 39 39 39 38 37 37 37 37 38 38 38 37 37 37 37 37 37 38 38 38 38 38 38 38 38 38 38 38 37 37 37 37 38 38 38 38 38 38 38 38 39
33 33 34 34 35 35 35 35 35 35 36 36 36 37 37 37 37 37 37 37 37 37 37 37 37 37 37 38 38 38 38 38 38 38 37 37 37 38 38 37 37 37 37 38 38 38 38 38 38 38 37 37 37 37 37 37 36 36 36 36 37 37 37 37 37 37 37 37 38
33 34 34 34 35 35 35 35 36 36 36 36 36 36 36 36 36 36 36 37 37 37 37 37 37 37 37 38 37 37 37 37 38 38 38 37 37 37 37 37 37 37 37 38 38 37 37 36 36 36 36 35 35 35 35 35 35 35 35 35 36 36 36 36 36 36 36 36 36
34 34 34 34 35 35 35 36 36 36 36 35 35 35 35 36 36 36 36 37 37 37 38 38 38 38 37 37 37 36 36 36 36 36 37 37 37 37 37 36 36 37 37 37 37 36 35 33 32 32 32 32 33 33 33 34 34 35 35 35 35 35 34 34 34 34 34 35 36
34 34 34 34 35 35 35 35 35 35 35 35 35 35 36 36 36 36 36 37 37 38 38 38 38 38 37 36 35 35 35 35 35 35 36 36 37 37 37 36 36 36 37 37 37 35 34 32 31 30 30 31 32 32 33 33 34 35 35 36 35 35 34 33 33 33 34 34 35
35 35 35 35 35 35 35 35 35 35 35 35 35 36 36 36 36 36 36 37 38 38 39 38 38 37 35 34 34 35 35 35 36 36 36 36 37 37 37 37 36 36 37 37 36 34 33 32 31 30 30 31 32 32 32 33 34 35 35 35 35 35 34 34 33 33 33 33 34
35 35 35 35 34 34 34 34 34 34 34 35 35 36 36 36 36 36 37 38 38 38 38 37 36 35 34 33 33 34 35 36 36 36 36 36 36 36 37 36 36 36 37 36 34 33 32 31 31 31 31 31 32 33 33 32 32 32 32 33 33 33 34 34 33 33 33 33 33
35 34 34 34 34 34 34 34 34 34 34 34 35 35 36 36 36 37 37 37 38 37 36 35 35 34 33 33 34 35 36 36 36 36 35 35 36 36 36 36 36 37 36 35 33 32 32 31 31 31 31 32 32 32 31 31 30 30 29 29 30 31 32 33 33 33 33 33 32
34 33 33 33 33 33 33 33 34 34 34 34 35 35 35 36 36 36 36 36 36 36 35 35 35 34 34 35 35 36 36 36 36 35 35 35 35 36 36 36 36 36 36 34 33 32 32 32 32 32 32 33 33 33 33 32 31 30 29 28 28 29 30 32 32 33 33 32 32
33 32 32 32 32 33 33 34 34 34 34 34 34 35 35 35 36 36 35 35 36 36 36 35 35 35 36 36 36 36 36 36 36 35 35 34 35 35 36 36 36 36 36 34 33 32 31 31 32 33 33 33 33 33 32 32 31 30 29 28 28 28 29 30 31 32 33 33 32
32 32 32 32 32 33 33 33 34 34 34 34 34 34 34 35 35 35 35 35 35 35 35 35 35 35 36 36 36 35 35 35 35 34 34 34 34 35 35 36 36 35 35 33 32 31 31 31 32 33 33 33 33 34 34 33 32 31 31 30 30 29 29 29 29 31 32 33 33
32 32 32 32 32 32 33 33 33 33 33 33 33 33 34 34 35 35 35 35 34 34 34 34 34 34 34 35 35 35 35 35 34 34 34 34 34 34 35 35 34 33 32 31 30 30 31 32 33 34 34 34 34 34 34 32 31 30 29 29 29 29 29 29 29 30 31 33 33
31 31 31 31 31 32 32 32 32 32 32 33 33 33 33 33 34 35 35 35 34 34 34 34 34 34 34 34 34 34 34 34 34 34 34 34 34 35 35 34 33 32 31 30 30 31 32 33 34 34 34 34 34 33 32 31 30 29 29 29 29 29 29 29 29 30 31 32 33
31 30 31 31 31 31 32 32 32 32 32 32 33 33 34 33 34 34 35 35 34 34 34 34 34 34 34 34 33 33 33 34 34 34 35 35 34 34 34 34 34 33 32 31 31 32 33 33 34 34 34 34 33 31 30 29 29 29 29 29 30 30 29 29 29 30 31 32 32
30 30 30 31 31 31 32 32 32 32 32 32 32 33 34 34 35 35 35 34 34 34 34 34 34 33 33 33 33 32 32 33 34 34 34 34 33 33 33 33 33 33 31 31 31 32 33 33 33 34 33 33 32 31 29 27 27 27 28 28 29 29 29 29 30 30 30 31 31
29 29 30 30 31 32 32 32 32 32 32 32 32 33 34 34 35 35 35 34 33 33 33 33 32 32 31 32 32 33 33 33 33 33 33 33 32 31 31 32 32 32 31 30 31 31 32 33 33 33 33 32 31 30 27 25 25 26 26 26 27 28 28 29 29 29 29 30 30
30 30 30 31 31 32 32 32 32 32 32 33 33 33 34 34 34 35 34 32 31 31 32 32 32 32 32 32 33 33 33 33 32 31 31 31 31 31 31 31 31 31 30 29 30 31 32 32 32 32 32 32 30 29 28 26 26 25 25 25 25 26 27 27 27 27 28 29 29
30 30 30 31 31 32 32 32 32 32 32 33 33 33 33 34 33 33 33 31 30 30 31 31 32 32 33 33 32 32 32 31 31 30 30 30 30 30 30 29 29 30 30 30 30 31 31 31 32 32 32 31 30 29 27 26 25 25 25 24 24 24 25 25 25 25 26 27 28
30 30 31 31 31 32 32 32 33 32 32 32 33 33 33 33 32 32 32 31 31 31 31 31 32 33 33 32 31 31 31 31 30 30 29 29 30 29 29 28 29 30 31 31 31 31 31 31 31 31 31 31 30 28 25 24 24 24 24 23 22 22 23 23 24 24 24 25 26
31 31 31 31 31 31 32 33 33 34 33 33 33 32 32 32 32 32 32 31 32 32 31 31 32 32 32 31 30 30 30 30 30 30 29 29 29 28 28 28 30 31 32 32 31 31 30 30 30 30 30 29 28 27 24 20 22 23 22 22 22 21 21 22 22 22 23 23 23
Wind_Direction
282 280 278 277 276 276 276 276 277 276 275 274 274 275 276 276 275 276 278 278 277 278 280 281 283 284 286 286 285 283 283 282 281 280 278 276 275 275 274 272 270 267 265 264 262 260 258 255 253 250 249 248 247 247 246 246 244 243 242 241 241 241 241 240 240 240 240 239 239
288 285 282 280 279 279 279 279 279 277 276 275 275 277 278 278 277 278 279 279 280 281 282 283 285 286 287 288 287 286 284 283 282 281 280 278 278 277 276 274 272 270 268 266 263 261 258 255 252 250 249 248 247 247 246 246 245 244 243 242 242 241 241 240 241 241 240 240 239
293 289 287 286 285 284 282 280 279 278 277 277 278 279 279 279 279 278 279 280 282 283 283 283 286 288 289 290 290 288 287 285 284 283 282 281 281 280 278 276 274 272 270 268 265 262 259 256 253 250 249 248 248 247 247 247 245 244 243 243 242 242 241 240 241 241 240 240 239
295 292 291 291 292 290 287 282 280 279 278 279 280 280 279 279 278 278 280 282 283 283 284 285 288 290 291 292 292 291 290 289 287 286 284 284 283 282 281 279 277 275 273 270 267 265 262 258 254 250 249 248 248 248 247 247 246 244 243 244 243 241 241 241 241 241 240 239 239
299 296 294 294 294 292 288 283 280 279 279 279 279 278 277 277 278 279 280 282 283 285 288 290 291 292 292 292 293 292 292 291 289 287 286 286 285 285 283 281 279 277 275 273 270 267 264 259 255 251 250 249 249 248 249 249 247 245 244 244 243 241 241 241 241 240 240 239 239
302 299 297 296 295 292 287 283 280 280 279 279 277 276 277 278 280 281 283 284 287 291 293 292 292 291 291 291 291 291 291 290 289 288 287 287 287 286 285 283 281 280 277 274 272 269 265 260 256 253 251 251 250 250 250 249 247 245 245 244 243 242 241 240 240 240 239 239 238
302 300 299 297 294 289 285 283 281 280 279 277 276 276 278 281 283 285 287 289 290 290 290 290 289 289 289 288 288 288 287 287 287 287 287 286 286 286 286 285 283 281 279 277 274 270 266 261 256 254 252 251 251 251 250 249 247 245 244 243 243 242 241 240 240 240 239 238 237
303 302 302 299 295 289 285 282 281 280 278 277 277 278 280 283 285 287 287 287 287 286 285 285 284 284 284 284 285 284 284 285 285 285 285 285 285 285 286 285 284 282 281 279 275 272 267 262 257 255 253 253 252 251 251 249 247 245 244 244 244 243 242 241 240 239 238 237 237
303 304 304 302 297 291 285 282 280 280 280 279 279 280 281 283 283 282 282 282 281 280 280 279 279 279 280 281 282 282 282 283 283 284 284 285 285 285 285 285 284 283 282 280 277 274 269 264 259 256 255 253 252 252 252 250 248 246 245 244 245 244 243 241 241 239 238 237 237
304 304 304 301 297 292 286 282 279 279 280 280 279 279 279 279 278 278 278 278 278 278 277 277 277 278 279 280 280 281 281 282 283 284 285 285 285 285 285 285 284 284 283 282 279 275 271 266 261 258 257 255 254 254 253 251 249 247 246 245 245 245 244 242 241 240 239 238 237
304 304 303 301 298 293 288 283 279 278 279 280 279 278 277 277 277 277 278 279 280 280 280 280 281 282 282 282 282 282 282 283 284 284 285 286 286 286 286 286 286 285 285 283 281 277 272 267 263 261 259 258 256 255 254 252 250 248 247 246 246 245 244 243 241 240 239 238 238
302 303 302 301 299 295 290 284 279 277 277 278 279 279 279 279 280 282 284 286 288 288 287 288 289 290 290 289 288 288 287 287 286 286 286 286 286 287 287 287 287 287 286 285 282 278 272 268 265 263 262 260 258 256 254 253 250 249 248 248 247 245 245 244 242 241 240 239 239
299 300 301 301 299 296 291 286 280 276 276 277 279 280 281 283 285 289 293 295 297 297 298 299 301 301 301 301 300 298 296 293 290 288 286 286 286 286 286 286 287 287 287 286 284 279 274 270 268 265 264 263 260 258 256 254 251 250 248 248 247 246 245 245 244 242 241 240 239
301 299 300 300 299 298 294 289 284 280 278 278 279 281 284 287 290 294 298 301 302 303 305 306 307 308 308 308 308 306 303 299 295 291 288 286 285 285 285 286 287 287 287 287 285 282 277 274 271 268 266 264 263 261 258 256 253 251 249 248 247 246 246 246 245 243 242 240 240
310 305 303 302 301 300 298 295 292 287 284 282 282 283 286 289 292 295 299 301 303 304 305 306 307 308 308 308 308 307 305 301 297 292 289 286 285 284 284 285 286 287 287 287 286 283 280 277 274 271 269 266 265 264 261 258 255 253 251 250 248 248 247 247 246 244 242 241 240
323 317 312 308 306 304 303 302 301 298 294 290 289 288 289 291 294 296 298 300 302 303 303 304 305 305 306 306 305 304 302 300 296 292 289 286 285 285 285 285 286 287 287 287 287 285 282 280 277 274 271 268 267 265 263 260 257 255 253 252 251 250 249 248 247 245 243 242 241
330 327 324 319 315 312 310 310 308 306 303 301 298 296 295 296 297 298 299 300 300 301 301 302 303 303 304 303 303 302 300 297 294 291 289 287 286 285 285 285 286 286 287 287 286 285 284 282 279 276 273 270 268 267 265 263 260 258 256 254 253 251 250 249 248 246 245 243 242
332 331 329 326 323 320 317 316 314 312 310 308 306 304 302 301 300 300 300 300 300 300 300 301 302 302 302 302 302 300 298 296 294 292 290 288 287 286 285 285 286 286 287 286 286 286 285 283 281 278 275 271 269 267 266 264 262 260 258 257 255 254 252 251 249 248 246 245 244
331 330 329 327 325 323 322 320 318 316 313 311 309 307 305 303 302 301 300 300 301 301 301 301 302 302 302 301 301 301 299 296 295 293 292 290 289 287 286 286 286 286 286 286 286 286 286 284 282 279 276 272 270 268 266 265 263 261 260 258 257 255 254 252 251 249 248 246 246
330 329 327 326 325 323 322 320 318 316 314 311 309 307 305 304 303 302 301 301 302 302 302 301 301 301 302 302 301 301 300 298 296 294 293 292 290 288 287 287 286 286 286 286 286 286 286 285 283 280 277 274 271 269 267 266 264 262 261 260 258 257 256 254 253 251 249 248 247
330 328 326 325 324 322 321 319 317 315 313 311 309 307 305 304 304 303 302 303 303 303 302 302 301 301 302 302 302 301 301 299 297 294 293 292 290 289 288 287 286 286 286 286 286 286 286 285 283 281 278 275 272 270 268 266 265 263 262 261 260 259 257 256 255 253 251 250 248
329 328 326 325 323 322 320 318 317 315 313 311 309 308 307 306 305 305 304 305 304 303 303 302 302 302 302 302 302 301 301 300 297 294 293 291 289 289 288 287 286 285 285 285 286 286 286 285 283 281 278 275 272 271 269 267 265 264 263 262 261 260 259 257 256 254 252 251 249
329 327 326 324 323 322 320 319 317 315 314 312 311 309 308 307 307 306 306 306 305 304 303 303 303 303 303 303 302 301 300 299 297 295 293 291 290 289 289 288 286 285 285 285 286 286 285 284 283 281 278 275 273 271 269 268 266 264 263 262 261 260 259 258 256 254 253 252 251
328 327 325 324 323 322 321 319 318 317 315 313 312 310 309 308 308 307 306 305 305 304 304 305 305 304 304 304 302 301 299 297 296 296 295 293 291 290 289 288 286 285 285 285 286 285 284 282 281 280 278 276 273 272 270 268 266 264 263 262 261 260 259 258 256 254 253 252 251
328 327 326 325 323 322 321 320 318 316 315 313 312 310 309 308 307 306 305 305 305 305 305 305 305 305 304 303 302 300 298 296 295 294 294 293 292 291 290 288 286 285 285 285 285 284 282 279 277 276 275 274 273 271 270 269 267 265 263 261 260 259 258 257 256 254 253 252 251
328 327 326 325 323 322 320 318 316 314 313 312 311 309 308 307 306 305 304 304 304 304 305 305 305 304 303 302 300 299 297 295 293 292 291 291 291 290 288 286 285 284 284 284 284 283 281 278 275 273 272 271 271 270 268 267 266 264 262 260 259 257 256 255 254 254 253 252 251
327 326 325 324 322 320 317 316 314 312 311 310 309 307 307 306 305 304 303 303 303 304 304 304 303 302 301 299 298 296 295 294 293 291 290 289 288 287 286 285 284 283 283 283 282 281 280 278 276 274 272 272 271 270 268 266 265 263 260 258 256 254 253 252 252 252 252 252 252
325 324 323 322 319 317 315 314 312 310 309 308 307 306 305 304 303 302 302 302 302 303 303 302 302 301 299 297 295 294 293 293 291 290 289 287 286 285 284 283 283 282 283 282 281 281 280 279 278 277 276 276 275 274 272 269 266 263 259 255 252 250 249 249 250 251 251 252 252
324 323 321 319 316 314 313 311 310 308 307 307 306 305 304 303 302 302 301 301 301 301 300 300 300 299 297 295 293 293 292 291 290 289 287 286 285 284 283 282 282 282 283 282 282 281 280 279 279 279 279 280 279 277 275 272 269 266 261 256 251 248 247 246 247 248 249 249 250
322 320 318 316 313 312 311 309 309 308 307 306 305 304 303 302 302 301 301 301 300 300 299 299 298 296 294 293 293 292 291 290 290 289 287 285 284 284 283 283 282 283 284 284 283 282 281 281 281 281 282 282 281 280 277 274 272 269 266 260 255 250 246 245 244 245 245 246 247
321 318 316 314 312 310 309 309 309 308 307 306 305 304 303 302 301 301 301 300 300 300 300 299 297 295 294 294 293 292 291 291 290 289 287 285 284 284 284 284 284 284 285 285 284 284 283 283 283 284 285 285 284 282 279 276 274 271 268 265 261 255 250 246 243 242 242 242 244
319 317 315 312 310 309 309 309 308 308 307 306 304 303 302 302 301 301 301 301 301 301 300 299 298 296 296 296 295 293 292 291 290 289 288 286 285 285 285 285 285 286 286 286 286 285 285 285 286 287 287 287 286 284 282 280 277 275 272 269 265 261 255 249 244 241 240 240 241
319 317 315 312 310 309 309 309 308 308 307 306 305 304 303 303 303 303 303 303 302 301 300 299 298 297 296 295 295 294 293 292 291 290 289 287 287 286 286 286 286 286 287 287 287 287 287 288 289 290 290 289 289 287 286 284 281 278 275 272 269 265 260 254 248 243 241 239 239
319 317 315 313 311 310 310 309 309 308 307 306 305 305 304 304 304 304 304 304 303 302 300 299 298 296 296 295 294 293 292 292 291 290 289 289 288 287 286 286 286 287 287 287 288 289 290 291 292 292 292 292 291 290 288 286 283 280 278 275 272 268 263 258 253 247 243 241 239
319 317 315 313 312 311 310 310 309 309 308 307 306 306 305 305 305 304 304 304 303 302 300 299 298 297 296 295 294 293 292 291 291 290 290 289 289 288 287 286 287 287 288 289 290 291 293 293 293 294 294 294 293 292 289 287 284 281 278 275 273 270 266 261 256 251 246 243 240
319 317 315 313 312 311 310 310 309 309 308 307 306 306 306 306 305 305 304 304 303 302 300 299 299 298 297 296 295 294 293 291 291 291 290 290 288 287 286 286 287 288 289 290 292 293 294 295 295 295 296 296 295 293 291 288 285 282 278 275 272 269 265 262 258 254 250 244 241
318 317 315 313 312 311 310 310 309 308 307 306 306 306 306 305 305 305 305 304 303 301 300 299 299 298 297 296 295 295 293 292 291 290 290 289 288 287 286 286 287 288 290 291 293 295 296 296 297 297 297 297 296 295 293 291 288 284 281 276 272 268 265 262 259 255 251 247 243
317 316 314 312 311 311 310 309 308 307 307 306 306 306 305 305 305 305 305 304 302 301 299 299 298 298 297 297 296 295 294 293 291 290 289 288 288 287 286 286 287 289 291 293 295 296 296 297 297 298 298 298 297 296 295 293 291 288 284 280 275 271 267 263 259 255 251 248 247
316 315 313 312 311 310 310 309 308 307 306 306 306 305 305 305 304 304 304 303 301 300 299 299 298 298 298 298 297 295 294 293 292 290 289 289 288 288 287 287 289 291 293 295 296 296 296 297 297 297 298 298 297 296 295 294 291 289 286 282 279 274 269 264 258 254 251 249 248
315 314 313 312 311 310 309 309 308 307 306 306 305 305 304 304 304 303 303 303 302 300 299 298 298 298 298 298 297 295 295 294 293 292 291 291 290 290 289 289 291 293 295 295 295 296 296 296 296 297 298 298 298 297 295 293 291 289 287 284 280 276 271 265 259 255 251 249 248
315 314 313 312 311 310 309 308 308 307 307 306 305 304 304 304 304 304 303 303 302 301 300 299 298 298 297 297 296 296 295 295 295 295 294 294 293 293 292 292 294 294 295 295 295 295 295 296 296 297 298 298 297 297 295 293 291 289 287 285 282 278 273 267 261 256 252 249 247